DREHN EDNV-EDNV

Flight info

Callsign DREHN
Flight time 0h 37m
Altitude 0
Route LOCAL
Aircraft PA24/L-SDGRY/S

Departure

Time 2026-04-29 14:35
Airport Vogtareuth Airfield (EDNV)

Arrival

Time 2026-04-29 15:12
Airport Vogtareuth Airfield (EDNV)
Time Latitude Longitude Altitude Speed Heading
2026-04-29 14:18 47.94637 12.20411 1540 ft 0 kts 16°
2026-04-29 14:24 47.94639 12.20412 1540 ft 0 kts 14°
2026-04-29 14:29 47.94642 12.20416 1536 ft 0 kts 59°
2026-04-29 14:29 47.94642 12.20417 1536 ft 0 kts 59°
2026-04-29 14:29 47.94640 12.20427 1540 ft 1 kts 113°
2026-04-29 14:30 47.94629 12.20419 1541 ft 5 kts 258°
2026-04-29 14:30 47.94596 12.20325 1546 ft 14 kts 239°
2026-04-29 14:30 47.94549 12.20212 1553 ft 14 kts 237°
2026-04-29 14:30 47.94531 12.20183 1555 ft 0 kts 169°
2026-04-29 14:33 47.94527 12.20182 1555 ft 3 kts 202°
2026-04-29 14:33 47.94502 12.20177 1557 ft 4 kts 141°
2026-04-29 14:34 47.94504 12.20197 1556 ft 0 kts 55°
2026-04-29 14:34 47.94676 12.20589 1631 ft 66 kts 55°
2026-04-29 14:34 47.94912 12.21141 1956 ft 72 kts 59°
2026-04-29 14:35 47.95186 12.21776 2355 ft 67 kts 63°
2026-04-29 14:35 47.95305 12.22396 2727 ft 69 kts 90°
2026-04-29 14:35 47.95140 12.23146 2948 ft 82 kts 108°
2026-04-29 14:35 47.94882 12.23892 3253 ft 80 kts 107°
2026-04-29 14:36 47.94634 12.24655 3498 ft 85 kts 107°
2026-04-29 14:36 47.94270 12.25361 3770 ft 87 kts 132°
2026-04-29 14:36 47.93707 12.25816 4035 ft 100 kts 143°
2026-04-29 14:36 47.93049 12.26332 4189 ft 116 kts 143°
2026-04-29 14:37 47.92291 12.26973 4184 ft 133 kts 142°
2026-04-29 14:37 47.91482 12.27698 4148 ft 140 kts 142°
2026-04-29 14:37 47.90639 12.28449 4116 ft 142 kts 144°
2026-04-29 14:37 47.89777 12.29163 4117 ft 143 kts 142°
2026-04-29 14:38 47.88911 12.29866 4124 ft 144 kts 141°
2026-04-29 14:38 47.88042 12.30604 4126 ft 143 kts 143°
2026-04-29 14:38 47.87211 12.31305 4387 ft 124 kts 144°
2026-04-29 14:38 47.86473 12.31878 4584 ft 121 kts 143°
2026-04-29 14:39 47.85723 12.32444 4712 ft 119 kts 143°
2026-04-29 14:39 47.84978 12.32971 4800 ft 122 kts 155°
2026-04-29 14:39 47.84074 12.32865 4721 ft 140 kts 197°
2026-04-29 14:39 47.83367 12.31866 4855 ft 145 kts 238°
2026-04-29 14:40 47.83109 12.30396 4960 ft 148 kts 263°
2026-04-29 14:40 47.82936 12.28950 5168 ft 143 kts 253°
2026-04-29 14:40 47.82514 12.27557 5218 ft 148 kts 244°
2026-04-29 14:40 47.82083 12.26239 5421 ft 139 kts 243°
2026-04-29 14:41 47.81638 12.24908 5504 ft 145 kts 243°
2026-04-29 14:41 47.81196 12.23574 5676 ft 144 kts 243°
2026-04-29 14:41 47.80752 12.22250 5809 ft 142 kts 243°
2026-04-29 14:41 47.80322 12.20956 5987 ft 138 kts 243°
2026-04-29 14:42 47.79950 12.19601 6072 ft 145 kts 257°
2026-04-29 14:42 47.79920 12.18144 6220 ft 140 kts 281°
2026-04-29 14:42 47.80053 12.16755 6420 ft 135 kts 282°
2026-04-29 14:42 47.80201 12.15327 6446 ft 144 kts 283°
2026-04-29 14:43 47.80357 12.13884 6578 ft 139 kts 283°
2026-04-29 14:43 47.80323 12.12428 6531 ft 149 kts 252°
2026-04-29 14:43 47.79733 12.11223 6715 ft 140 kts 225°
2026-04-29 14:43 47.79030 12.10169 6722 ft 146 kts 223°
2026-04-29 14:44 47.78285 12.09105 6724 ft 152 kts 221°
2026-04-29 14:44 47.77316 12.08442 6693 ft 157 kts 186°
2026-04-29 14:44 47.76250 12.08178 6711 ft 153 kts 184°
2026-04-29 14:44 47.75203 12.07973 6702 ft 151 kts 182°
2026-04-29 14:45 47.74153 12.07755 6698 ft 159 kts 184°
2026-04-29 14:45 47.73222 12.06934 6688 ft 158 kts 227°
2026-04-29 14:45 47.72805 12.05451 6696 ft 154 kts 265°
2026-04-29 14:45 47.72761 12.03851 6708 ft 157 kts 272°
2026-04-29 14:46 47.72828 12.02274 6710 ft 152 kts 282°
2026-04-29 14:46 47.72988 12.00714 6703 ft 152 kts 282°
2026-04-29 14:46 47.73147 11.99160 6702 ft 152 kts 282°
2026-04-29 14:46 47.73276 11.97559 6701 ft 168 kts 279°
2026-04-29 14:47 47.73360 11.95845 6704 ft 165 kts 282°
2026-04-29 14:47 47.73593 11.94188 6700 ft 163 kts 304°
2026-04-29 14:47 47.74381 11.93148 6706 ft 151 kts 347°
2026-04-29 14:47 47.75362 11.92748 6695 ft 143 kts 352°
2026-04-29 14:48 47.76317 11.92364 6692 ft 142 kts 353°
2026-04-29 14:48 47.77280 11.92014 6684 ft 142 kts 347°
2026-04-29 14:48 47.78002 11.91050 6692 ft 146 kts 303°
2026-04-29 14:48 47.78135 11.89556 6700 ft 147 kts 263°
2026-04-29 14:49 47.77936 11.87962 6706 ft 163 kts 264°
2026-04-29 14:49 47.77742 11.86367 6640 ft 154 kts 259°
2026-04-29 14:49 47.77286 11.84891 6363 ft 164 kts 235°
2026-04-29 14:49 47.76405 11.83798 6067 ft 170 kts 201°
2026-04-29 14:50 47.75249 11.83657 5796 ft 168 kts 163°
2026-04-29 14:50 47.74180 11.84182 5679 ft 155 kts 152°
2026-04-29 14:50 47.73229 11.84794 5664 ft 142 kts 150°
2026-04-29 14:50 47.72336 11.85328 5672 ft 140 kts 153°
2026-04-29 14:51 47.71436 11.85839 5679 ft 137 kts 152°
2026-04-29 14:51 47.70624 11.86536 5698 ft 134 kts 131°
2026-04-29 14:51 47.70161 11.87668 5695 ft 125 kts 102°
2026-04-29 14:51 47.69985 11.88914 5688 ft 119 kts 92°
2026-04-29 14:52 47.69876 11.90073 5758 ft 111 kts 92°
2026-04-29 14:52 47.69766 11.91124 6161 ft 100 kts 90°
2026-04-29 14:52 47.69936 11.92167 6308 ft 113 kts 51°
2026-04-29 14:52 47.70567 11.92723 6721 ft 102 kts 22°
2026-04-29 14:53 47.71297 11.93045 6857 ft 111 kts 21°
2026-04-29 14:53 47.72056 11.93368 7052 ft 114 kts 20°
2026-04-29 14:53 47.72810 11.93676 7181 ft 118 kts 21°
2026-04-29 14:53 47.73649 11.94048 7181 ft 131 kts 20°
2026-04-29 14:54 47.74526 11.94457 7165 ft 136 kts 21°
2026-04-29 14:54 47.75442 11.94892 7166 ft 139 kts 21°
2026-04-29 14:54 47.76359 11.95291 7157 ft 143 kts 21°
2026-04-29 14:54 47.77299 11.95699 7167 ft 140 kts 20°
2026-04-29 14:55 47.78228 11.96106 7172 ft 141 kts 19°
2026-04-29 14:55 47.79168 11.96538 7173 ft 141 kts 21°
2026-04-29 14:55 47.80119 11.96985 7172 ft 144 kts 20°
2026-04-29 14:55 47.81060 11.97387 7167 ft 141 kts 19°
2026-04-29 14:56 47.82022 11.97779 6710 ft 149 kts 20°
2026-04-29 14:56 47.82986 11.98156 6548 ft 136 kts 20°
2026-04-29 14:56 47.83912 11.98523 6152 ft 142 kts 21°
2026-04-29 14:56 47.84860 11.98903 5859 ft 140 kts 20°
2026-04-29 14:57 47.85795 11.99266 5557 ft 139 kts 19°
2026-04-29 14:57 47.86732 11.99653 5254 ft 136 kts 22°
2026-04-29 14:57 47.87626 11.99996 4997 ft 133 kts 22°
2026-04-29 14:57 47.88380 12.00817 4526 ft 141 kts 59°
2026-04-29 14:58 47.88730 12.02130 4355 ft 128 kts 70°
2026-04-29 14:58 47.89017 12.03354 4082 ft 127 kts 70°
2026-04-29 14:58 47.89321 12.04611 3735 ft 126 kts 69°
2026-04-29 14:58 47.89596 12.05793 3570 ft 118 kts 70°
2026-04-29 14:59 47.89869 12.06959 3335 ft 123 kts 70°
2026-04-29 14:59 47.90136 12.08084 3326 ft 106 kts 70°
2026-04-29 14:59 47.90387 12.09159 3192 ft 101 kts 70°
2026-04-29 14:59 47.90583 12.10062 3214 ft 87 kts 69°
2026-04-29 15:00 47.90767 12.10883 3229 ft 79 kts 69°
2026-04-29 15:00 47.90931 12.11635 3249 ft 75 kts 70°
2026-04-29 15:00 47.91089 12.12389 3110 ft 78 kts 71°
2026-04-29 15:00 47.91254 12.13106 2894 ft 71 kts 70°
2026-04-29 15:01 47.91485 12.13708 2766 ft 69 kts 54°
2026-04-29 15:01 47.91792 12.14315 2665 ft 75 kts 53°
2026-04-29 15:01 47.92168 12.14829 2630 ft 77 kts 29°
2026-04-29 15:01 47.92720 12.14991 2606 ft 84 kts 11°
2026-04-29 15:02 47.93299 12.15042 2605 ft 83 kts 11°
2026-04-29 15:02 47.93861 12.15280 2582 ft 87 kts 37°
2026-04-29 15:02 47.94242 12.15886 2605 ft 77 kts 64°
2026-04-29 15:02 47.94373 12.16677 2574 ft 79 kts 81°
2026-04-29 15:03 47.94369 12.17477 2556 ft 78 kts 90°
2026-04-29 15:03 47.94290 12.18289 2538 ft 80 kts 91°
2026-04-29 15:03 47.94335 12.19078 2521 ft 78 kts 64°
2026-04-29 15:03 47.94546 12.19802 2513 ft 70 kts 68°
2026-04-29 15:04 47.94704 12.20481 2560 ft 67 kts 60°
2026-04-29 15:04 47.95096 12.20735 2651 ft 74 kts 354°
2026-04-29 15:04 47.95504 12.20220 2780 ft 82 kts 308°
2026-04-29 15:04 47.95702 12.19322 2850 ft 94 kts 292°
2026-04-29 15:05 47.95801 12.18299 2892 ft 103 kts 264°
2026-04-29 15:05 47.95579 12.17300 3060 ft 100 kts 244°
2026-04-29 15:05 47.95298 12.16269 3086 ft 107 kts 246°
2026-04-29 15:05 47.94838 12.15386 3011 ft 116 kts 206°
2026-04-29 15:06 47.94096 12.15348 2888 ft 103 kts 137°
2026-04-29 15:06 47.93837 12.16201 2713 ft 88 kts 97°
2026-04-29 15:06 47.93635 12.17040 2572 ft 84 kts 95°
2026-04-29 15:06 47.93633 12.17891 2386 ft 81 kts 77°
2026-04-29 15:07 47.93844 12.18643 2188 ft 84 kts 53°
2026-04-29 15:07 47.94160 12.19369 1897 ft 82 kts 58°
2026-04-29 15:07 47.94459 12.20071 1625 ft 81 kts 60°
2026-04-29 15:07 47.94721 12.20717 1587 ft 69 kts 56°
2026-04-29 15:08 47.94993 12.21296 1896 ft 65 kts 53°
2026-04-29 15:08 47.95368 12.21705 2229 ft 77 kts 14°
2026-04-29 15:08 47.95932 12.21468 2621 ft 88 kts 331°
2026-04-29 15:08 47.96176 12.20510 2761 ft 119 kts 281°
2026-04-29 15:09 47.96001 12.19288 3000 ft 123 kts 249°
2026-04-29 15:09 47.95583 12.18087 3156 ft 133 kts 242°
2026-04-29 15:09 47.95139 12.16817 3276 ft 139 kts 239°
2026-04-29 15:09 47.94665 12.15607 3538 ft 134 kts 235°
2026-04-29 15:10 47.94009 12.14832 3475 ft 112 kts 192°
2026-04-29 15:10 47.93388 12.15035 3429 ft 88 kts 112°
2026-04-29 15:10 47.93289 12.15864 3204 ft 76 kts 85°
2026-04-29 15:10 47.93242 12.16626 2864 ft 70 kts 84°
2026-04-29 15:11 47.93339 12.17352 2565 ft 71 kts 67°
2026-04-29 15:11 47.93591 12.18038 2205 ft 83 kts 59°
2026-04-29 15:11 47.93907 12.18754 1930 ft 77 kts 60°
2026-04-29 15:11 47.94175 12.19409 1719 ft 69 kts 56°
2026-04-29 15:12 47.94423 12.19992 1591 ft 60 kts 58°
2026-04-29 15:12 47.94556 12.20317 1555 ft 52 kts 60°
2026-04-29 15:12 47.94734 12.20747 1530 ft 14 kts 64°
2026-04-29 15:12 47.94750 12.20765 1529 ft 4 kts 239°
2026-04-29 15:13 47.94726 12.20723 1530 ft 4 kts 237°
2026-04-29 15:13 47.94723 12.20664 1530 ft 7 kts 241°
2026-04-29 15:13 47.94699 12.20589 1536 ft 0 kts 259°
2026-04-29 15:13 47.94692 12.20584 1536 ft 2 kts 246°
2026-04-29 15:14 47.94675 12.20522 1538 ft 10 kts 249°
2026-04-29 15:14 47.94644 12.20440 1536 ft 4 kts 244°
2026-04-29 15:14 47.94640 12.20416 1540 ft 0 kts 207°
2026-04-29 15:15 47.94634 12.20410 1540 ft 4 kts 221°
2026-04-29 15:15 47.94600 12.20336 1546 ft 13 kts 236°
2026-04-29 15:16 47.94558 12.20237 1552 ft 14 kts 239°
2026-04-29 15:16 47.94518 12.20176 1556 ft 7 kts 191°
2026-04-29 15:16 47.94505 12.20203 1556 ft 4 kts 56°
2026-04-29 15:16 47.94696 12.20633 1642 ft 67 kts 56°
2026-04-29 15:17 47.94952 12.21207 2016 ft 65 kts 55°
2026-04-29 15:17 47.95225 12.21707 2423 ft 64 kts 49°
2026-04-29 15:17 47.95633 12.21978 2770 ft 77 kts
2026-04-29 15:17 47.95992 12.21788 2921 ft 95 kts 325°
2026-04-29 15:18 47.95992 12.20177 3150 ft 139 kts 248°
2026-04-29 15:18 47.95574 12.18791 3437 ft 134 kts 243°
2026-04-29 15:18 47.95130 12.17481 3464 ft 153 kts 242°
2026-04-29 15:18 47.94683 12.16056 3588 ft 153 kts 246°
2026-04-29 15:19 47.94256 12.14580 3424 ft 153 kts 238°
2026-04-29 15:19 47.93473 12.13708 3341 ft 139 kts 186°
2026-04-29 15:19 47.92597 12.13911 3384 ft 121 kts 136°
2026-04-29 15:19 47.92267 12.14953 3282 ft 114 kts 95°
2026-04-29 15:20 47.92336 12.16100 3168 ft 108 kts 73°
2026-04-29 15:20 47.92654 12.17164 2996 ft 115 kts 61°
2026-04-29 15:20 47.93046 12.18186 2876 ft 118 kts 64°
2026-04-29 15:20 47.93429 12.19252 2813 ft 117 kts 62°
2026-04-29 15:21 47.93842 12.20256 2831 ft 107 kts 58°
2026-04-29 15:21 47.94242 12.21173 2770 ft 107 kts 59°
2026-04-29 15:21 47.94607 12.22068 2840 ft 98 kts 58°
2026-04-29 15:21 47.95105 12.22758 2830 ft 101 kts 33°
2026-04-29 15:22 47.95806 12.22946 2781 ft 111 kts 358°
2026-04-29 15:22 47.96517 12.22442 2790 ft 117 kts 325°
2026-04-29 15:22 47.96949 12.21369 2727 ft 128 kts 291°
2026-04-29 15:22 47.96929 12.20003 2693 ft 136 kts 256°
2026-04-29 15:23 47.96618 12.18705 2723 ft 132 kts 250°
2026-04-29 15:23 47.96289 12.17393 2718 ft 136 kts 250°
2026-04-29 15:23 47.95927 12.16136 2765 ft 131 kts 242°
2026-04-29 15:23 47.95267 12.15395 2714 ft 114 kts 184°
2026-04-29 15:24 47.94498 12.15542 2394 ft 112 kts 156°
2026-04-29 15:24 47.93892 12.16048 2284 ft 93 kts 123°
2026-04-29 15:24 47.93505 12.16756 2163 ft 79 kts 113°
2026-04-29 15:24 47.93385 12.17492 2134 ft 73 kts 85°
2026-04-29 15:25 47.93567 12.18207 2036 ft 81 kts 52°
2026-04-29 15:25 47.93920 12.18857 1870 ft 76 kts 54°
2026-04-29 15:25 47.94216 12.19503 1714 ft 70 kts 59°
2026-04-29 15:25 47.94467 12.20104 1577 ft 66 kts 59°
2026-04-29 15:26 47.94663 12.20575 1537 ft 41 kts 57°
2026-04-29 15:26 47.94737 12.20752 1529 ft 2 kts
2026-04-29 15:26 47.94738 12.20736 1529 ft 5 kts 225°
2026-04-29 15:26 47.94727 12.20690 1531 ft 6 kts 289°
2026-04-29 15:27 47.94713 12.20637 1533 ft 11 kts 244°
2026-04-29 15:27 47.94671 12.20507 1538 ft 15 kts 242°
2026-04-29 15:27 47.94618 12.20377 1540 ft 10 kts 241°
2026-04-29 15:27 47.94608 12.20353 1544 ft 0 kts 237°
2026-04-29 15:35 47.94593 12.20319 1545 ft 8 kts 236°
2026-04-29 15:36 47.94570 12.20262 1550 ft 0 kts 240°
2026-04-29 15:37 47.94569 12.20260 1548 ft 3 kts 240°
2026-04-29 15:37 47.94537 12.20190 1554 ft 6 kts 217°
2026-04-29 15:37 47.94515 12.20176 1557 ft 7 kts 185°
2026-04-29 15:38 47.94507 12.20208 1556 ft 0 kts 54°
2026-04-29 15:38 47.94545 12.20289 1552 ft 44 kts 58°
2026-04-29 15:38 47.94774 12.20888 1730 ft 75 kts 63°
2026-04-29 15:39 47.95126 12.21322 2131 ft 74 kts 13°
2026-04-29 15:39 47.95619 12.20958 2492 ft 97 kts 309°
2026-04-29 15:39 47.95763 12.19869 2860 ft 110 kts 269°
2026-04-29 15:39 47.95569 12.18567 2978 ft 141 kts 259°
2026-04-29 15:40 47.95342 12.17015 2968 ft 162 kts 259°
2026-04-29 15:40 47.95116 12.15340 2949 ft 166 kts 259°
2026-04-29 15:40 47.94871 12.13636 2902 ft 169 kts 257°
2026-04-29 15:40 47.94614 12.11927 2896 ft 169 kts 259°
2026-04-29 15:41 47.94456 12.10182 2895 ft 171 kts 272°
2026-04-29 15:41 47.94473 12.08439 2894 ft 166 kts 271°
2026-04-29 15:41 47.94543 12.06754 2893 ft 165 kts 278°
2026-04-29 15:41 47.94611 12.05059 2892 ft 161 kts 275°
2026-04-29 15:42 47.94761 12.03389 2890 ft 166 kts 295°
2026-04-29 15:42 47.95256 12.01865 2897 ft 161 kts 302°
2026-04-29 15:42 47.95759 12.00363 2896 ft 162 kts 302°
2026-04-29 15:42 47.96260 11.98853 2895 ft 161 kts 303°
2026-04-29 15:43 47.96780 11.97378 2890 ft 158 kts 302°
2026-04-29 15:43 47.97006 11.95804 2870 ft 159 kts 264°
2026-04-29 15:43 47.96521 11.94378 2882 ft 156 kts 227°
2026-04-29 15:43 47.95841 11.93087 2897 ft 162 kts 233°
2026-04-29 15:44 47.95168 11.91717 2898 ft 165 kts 231°
2026-04-29 15:44 47.94548 11.90354 2877 ft 155 kts 247°
2026-04-29 15:44 47.94315 11.88768 2890 ft 157 kts 262°
2026-04-29 15:44 47.94119 11.87156 2891 ft 162 kts 261°
2026-04-29 15:45 47.93934 11.85494 2888 ft 160 kts 261°
2026-04-29 15:45 47.93736 11.83855 2885 ft 160 kts 261°
2026-04-29 15:45 47.93559 11.82257 2882 ft 159 kts 262°
2026-04-29 15:45 47.93407 11.80597 2882 ft 164 kts 260°
2026-04-29 15:46 47.93215 11.78917 2883 ft 163 kts 263°
2026-04-29 15:46 47.93036 11.77268 2883 ft 157 kts 260°
2026-04-29 15:46 47.92837 11.75668 2881 ft 156 kts 262°
2026-04-29 15:46 47.92667 11.74045 2877 ft 161 kts 264°
2026-04-29 15:47 47.92479 11.72387 2882 ft 160 kts 262°
2026-04-29 15:47 47.92650 11.70799 2879 ft 157 kts 300°
2026-04-29 15:47 47.93400 11.69711 2889 ft 148 kts 328°
2026-04-29 15:47 47.94236 11.68842 2890 ft 146 kts 329°
2026-04-29 15:48 47.95159 11.68269 2874 ft 144 kts 355°
2026-04-29 15:48 47.96117 11.67924 2886 ft 145 kts 352°
2026-04-29 15:48 47.97083 11.67464 2883 ft 147 kts 346°
2026-04-29 15:48 47.98065 11.67046 2885 ft 147 kts 349°
2026-04-29 15:49 47.99061 11.66606 2892 ft 150 kts 348°
2026-04-29 15:49 48.00073 11.66167 2888 ft 154 kts 349°
2026-04-29 15:49 48.01110 11.65699 2887 ft 156 kts 353°
2026-04-29 15:49 48.02152 11.65909 2863 ft 153 kts 31°
2026-04-29 15:50 48.03004 11.66824 2881 ft 148 kts 36°
2026-04-29 15:50 48.03810 11.67734 2881 ft 145 kts 44°
2026-04-29 15:50 48.04625 11.68631 2885 ft 147 kts 42°
2026-04-29 15:50 48.05436 11.69567 2883 ft 146 kts 40°
2026-04-29 15:51 48.06172 11.70591 2878 ft 144 kts 56°
2026-04-29 15:51 48.06682 11.71880 2898 ft 144 kts 61°
2026-04-29 15:51 48.07197 11.73147 2931 ft 142 kts 60°
2026-04-29 15:51 48.07698 11.74439 2926 ft 144 kts 58°
2026-04-29 15:52 48.08201 11.75744 2924 ft 146 kts 60°
2026-04-29 15:52 48.08654 11.77068 2912 ft 141 kts 76°
2026-04-29 15:52 48.08502 11.78491 2910 ft 142 kts 116°
2026-04-29 15:52 48.07725 11.79420 2912 ft 151 kts 158°
2026-04-29 15:53 48.06682 11.79296 2913 ft 161 kts 197°
2026-04-29 15:53 48.05759 11.78311 2921 ft 164 kts 220°
2026-04-29 15:53 48.04885 11.77148 2927 ft 170 kts 220°
2026-04-29 15:53 48.04008 11.75970 2928 ft 170 kts 219°
2026-04-29 15:54 48.03132 11.74769 2916 ft 174 kts 219°
2026-04-29 15:54 48.02247 11.73542 2912 ft 171 kts 220°
2026-04-29 15:54 48.01383 11.72338 2912 ft 169 kts 220°
2026-04-29 15:54 48.00577 11.71034 2897 ft 173 kts 231°
2026-04-29 15:55 48.00241 11.69351 2899 ft 168 kts 271°
2026-04-29 15:55 48.00635 11.67760 2907 ft 164 kts 310°
2026-04-29 15:55 48.01545 11.66814 2910 ft 160 kts 351°
2026-04-29 15:55 48.02568 11.67151 2914 ft 152 kts 37°
2026-04-29 15:56 48.03212 11.68327 2924 ft 143 kts 61°
2026-04-29 15:56 48.03768 11.69570 2918 ft 145 kts 58°
2026-04-29 15:56 48.04313 11.70817 2910 ft 144 kts 56°
2026-04-29 15:56 48.05056 11.71798 2912 ft 142 kts 38°
2026-04-29 15:57 48.05867 11.72675 2908 ft 145 kts 32°
2026-04-29 15:57 48.06791 11.73309 2919 ft 147 kts 27°
2026-04-29 15:57 48.07708 11.73990 2919 ft 146 kts 30°
2026-04-29 15:57 48.08613 11.74698 2921 ft 149 kts 31°
2026-04-29 15:58 48.09528 11.75349 2921 ft 143 kts 23°
2026-04-29 15:58 48.10497 11.75771 2921 ft 146 kts 19°
2026-04-29 15:58 48.11483 11.76153 2922 ft 149 kts 20°
2026-04-29 15:58 48.12484 11.76566 2921 ft 148 kts 19°
2026-04-29 15:59 48.13487 11.76812 2924 ft 150 kts 10°
2026-04-29 15:59 48.14519 11.76940 2926 ft 148 kts 10°
2026-04-29 15:59 48.15546 11.77074 2927 ft 149 kts 10°
2026-04-29 15:59 48.16580 11.77218 2927 ft 149 kts 11°
2026-04-29 16:00 48.17613 11.77327 2925 ft 150 kts
2026-04-29 16:00 48.18656 11.77438 2926 ft 150 kts 10°
2026-04-29 16:00 48.19701 11.77559 2927 ft 150 kts
2026-04-29 16:00 48.20745 11.77733 2929 ft 153 kts 21°
2026-04-29 16:01 48.21562 11.78681 2930 ft 147 kts 61°
2026-04-29 16:01 48.21704 11.80115 2924 ft 143 kts 102°
2026-04-29 16:01 48.21091 11.81266 2919 ft 149 kts 146°
2026-04-29 16:01 48.20062 11.81472 2923 ft 155 kts 184°
2026-04-29 16:02 48.18997 11.81041 2933 ft 162 kts 189°
2026-04-29 16:02 48.17894 11.80631 2936 ft 165 kts 188°
2026-04-29 16:02 48.16770 11.80176 2932 ft 169 kts 187°
2026-04-29 16:02 48.15638 11.79742 2929 ft 167 kts 191°
2026-04-29 16:03 48.14614 11.78963 2909 ft 170 kts 221°
2026-04-29 16:03 48.14093 11.77379 2917 ft 175 kts 264°
2026-04-29 16:03 48.14321 11.75645 2925 ft 170 kts 304°
2026-04-29 16:03 48.15165 11.74518 2929 ft 164 kts 341°
2026-04-29 16:04 48.16246 11.74337 2941 ft 152 kts
2026-04-29 16:04 48.17238 11.74754 2937 ft 147 kts 30°
2026-04-29 16:04 48.18159 11.75422 2930 ft 145 kts 30°
2026-04-29 16:04 48.19077 11.76091 2926 ft 149 kts 29°
2026-04-29 16:05 48.19996 11.76767 2925 ft 146 kts 30°
2026-04-29 16:05 48.20924 11.77412 2929 ft 147 kts 30°
2026-04-29 16:05 48.21866 11.78037 2928 ft 148 kts 29°
2026-04-29 16:05 48.22796 11.78674 2927 ft 147 kts 29°
2026-04-29 16:06 48.23707 11.79327 2927 ft 145 kts 30°
2026-04-29 16:06 48.24621 11.79953 2928 ft 147 kts 31°
2026-04-29 16:06 48.25577 11.80504 2917 ft 147 kts 12°
2026-04-29 16:06 48.26576 11.80265 2932 ft 151 kts 351°
2026-04-29 16:07 48.27621 11.80018 2934 ft 153 kts 356°
2026-04-29 16:07 48.28680 11.79781 2934 ft 154 kts
2026-04-29 16:07 48.29743 11.79646 2933 ft 153 kts
2026-04-29 16:07 48.30799 11.79481 2930 ft 152 kts 359°
2026-04-29 16:08 48.31836 11.79198 2932 ft 153 kts 353°
2026-04-29 16:08 48.32888 11.78932 2931 ft 153 kts 358°
2026-04-29 16:08 48.33945 11.78743 2931 ft 153 kts
2026-04-29 16:08 48.35005 11.78606 2933 ft 153 kts 359°
2026-04-29 16:09 48.36064 11.78414 2932 ft 154 kts 359°
2026-04-29 16:09 48.37127 11.78239 2930 ft 152 kts 359°
2026-04-29 16:09 48.38177 11.78036 2940 ft 152 kts 353°
2026-04-29 16:09 48.39016 11.77034 2635 ft 174 kts 298°
2026-04-29 16:10 48.39118 11.75359 2919 ft 163 kts 266°
2026-04-29 16:10 48.38999 11.73628 2947 ft 164 kts 266°
2026-04-29 16:10 48.38897 11.71874 2858 ft 171 kts 267°
2026-04-29 16:10 48.38801 11.70116 2840 ft 169 kts 268°
2026-04-29 16:11 48.38628 11.68386 2785 ft 169 kts 245°
2026-04-29 16:11 48.37765 11.67173 2572 ft 174 kts 198°
2026-04-29 16:11 48.36667 11.67348 2336 ft 154 kts 140°
2026-04-29 16:11 48.36130 11.68433 2413 ft 120 kts 103°
2026-04-29 16:12 48.36069 11.69635 2196 ft 103 kts 92°
2026-04-29 16:12 48.35989 11.70282 2161 ft 92 kts 97°
2026-04-29 16:12 48.35880 11.71651 2075 ft 104 kts 83°
2026-04-29 16:12 48.35943 11.72766 1979 ft 113 kts 79°
2026-04-29 16:13 48.36039 11.73926 1868 ft 115 kts 76°
2026-04-29 16:13 48.36107 11.75085 1792 ft 111 kts 79°
2026-04-29 16:13 48.36224 11.76231 1639 ft 109 kts 78°
2026-04-29 16:13 48.36320 11.77339 1482 ft 93 kts 78°
2026-04-29 16:14 48.36380 11.78112 1455 ft 58 kts 77°
2026-04-29 16:14 48.36413 11.78532 1457 ft 32 kts 90°
2026-04-29 16:14 48.36383 11.78813 1463 ft 26 kts 111°
2026-04-29 16:14 48.36314 11.79072 1466 ft 21 kts 115°
2026-04-29 16:15 48.36263 11.79235 1463 ft 11 kts 114°
2026-04-29 16:15 48.36255 11.79261 1462 ft 0 kts 118°